Williams, AZ

1:39 PM MST on February 27, 2017 (GMT -0700)
Williams

Weather History for KCMR - May, 2013

Change the Weather History Date:

Friday, May 17, 2013

  Actual Average (K40G) Record (K40G)
Temperature  
Mean Temperature 56 °F -  
Max Temperature 68 °F 65 °F 80 °F (1998)
Min Temperature 44 °F 58 °F 53 °F (1998)
Degree Days  
Heating Degree Days 9    
Growing Degree Days 6 (Base 50)    
Moisture  
Dew Point 23 °F    
Average Humidity 27    
Maximum Humidity 43    
Minimum Humidity 14    
Precipitation  
Precipitation 0.00 in - - ()
Sea Level Pressure  
Sea Level Pressure 30.13 in    
Wind  
Wind Speed 12 mph (South)    
Max Wind Speed 25 mph    
Max Gust Speed 38 mph    
Visibility 10 miles    
Events      
Averages and records for this station are not official NWS values.
T = Trace of Precipitation, MM = Missing Value Source: NWS Daily Summary

Daily Weather History Graph

Daily Weather History Graph

Search for Another Location

Airport or City:

Trip Planner

Search our weather history database for the weather conditions in past years. The results will help you decide how hot, cold, wet, or windy it might be!

Date:

Astronomy

May. 17, 2013 Rise Set
Actual Time 5:22 AM MST 7:27 PM MST
Civil Twilight 4:54 AM MST 7:56 PM MST
Nautical Twilight 4:19 AM MST 8:31 PM MST
Astronomical Twilight 3:42 AM MST 9:08 PM MST
Moon 11:52 AM MST (5/17) 12:28 AM MST (5/17)
Length of Visible Light 15h 02m
Length of Day
14h 05m
Waxing Crescent, 46% of the Moon is Illuminated
May 17
Waxing Crescent
May 17
First Quarter
May 24
Full
May 31
Last Quarter
Jun 8
New

Hourly Weather History & Observations

Time (MST) Temp. Windchill Dew Point Humidity Pressure Visibility Wind Dir Wind Speed Gust Speed Precip Events Conditions
12:15 AM 57.2 °F - 17.6 °F 21% 30.12 in 10.0 mi South 12.7 mph - N/A   Clear
12:35 AM 57.2 °F - 17.6 °F 21% 30.12 in 10.0 mi South 10.4 mph 19.6 mph N/A   Clear
12:55 AM 57.2 °F - 19.4 °F 23% 30.12 in 10.0 mi South 8.1 mph - N/A   Clear
1:15 AM 55.4 °F - 19.4 °F 25% 30.12 in 10.0 mi South 11.5 mph - N/A   Clear
1:35 AM 55.4 °F - 19.4 °F 25% 30.11 in 10.0 mi South 10.4 mph - N/A   Clear
1:55 AM 55.4 °F - 19.4 °F 25% 30.11 in 10.0 mi South 11.5 mph - N/A   Clear
2:15 AM 55.4 °F - 19.4 °F 25% 30.11 in 10.0 mi South 10.4 mph - N/A   Clear
2:35 AM 53.6 °F - 21.2 °F 28% 30.11 in 10.0 mi South 10.4 mph - N/A   Clear
2:55 AM 53.6 °F - 23.0 °F 30% 30.11 in 10.0 mi South 11.5 mph - N/A   Clear
3:15 AM 53.6 °F - 23.0 °F 30% 30.11 in 10.0 mi South 11.5 mph - N/A   Clear
3:35 AM 51.8 °F - 24.8 °F 35% 30.10 in 10.0 mi South 8.1 mph - N/A   Clear
3:55 AM 48.2 °F - 23.0 °F 37% 30.10 in 10.0 mi SSE 8.1 mph - N/A   Clear
4:15 AM 48.2 °F - 23.0 °F 37% 30.10 in 10.0 mi SSE 8.1 mph - N/A   Clear
4:35 AM 48.2 °F - 24.8 °F 40% 30.10 in 10.0 mi SSE 5.8 mph - N/A   Clear
4:55 AM 48.2 °F - 24.8 °F 40% 30.11 in 10.0 mi SE 6.9 mph - N/A   Clear
5:15 AM 44.6 °F 41.4 °F 23.0 °F 43% 30.11 in 10.0 mi SE 5.8 mph - N/A   Clear
5:35 AM 44.6 °F 40.7 °F 23.0 °F 43% 30.11 in 10.0 mi SE 6.9 mph - N/A   Clear
5:55 AM 46.4 °F 41.9 °F 23.0 °F 40% 30.12 in 10.0 mi SE 9.2 mph - N/A   Clear
6:15 AM 50.0 °F - 23.0 °F 35% 30.12 in 10.0 mi SSE 10.4 mph - N/A   Clear
6:35 AM 51.8 °F - 23.0 °F 33% 30.12 in 10.0 mi SSE 11.5 mph - N/A   Clear
6:55 AM 53.6 °F - 24.8 °F 33% 30.13 in 10.0 mi SE 11.5 mph - N/A   Clear
7:15 AM 55.4 °F - 24.8 °F 31% 30.13 in 10.0 mi SE 9.2 mph - N/A   Clear
7:35 AM 55.4 °F - 24.8 °F 31% 30.13 in 10.0 mi SE 11.5 mph - N/A   Clear
7:55 AM 57.2 °F - 26.6 °F 31% 30.13 in 10.0 mi SE 12.7 mph - N/A   Clear
8:15 AM 57.2 °F - 26.6 °F 31% 30.14 in 10.0 mi SSE 12.7 mph - N/A   Clear
8:35 AM 59.0 °F - 28.4 °F 31% 30.14 in 10.0 mi SSE 12.7 mph - N/A   Clear
8:55 AM 59.0 °F - 28.4 °F 31% 30.14 in 10.0 mi South 13.8 mph 19.6 mph N/A   Clear
9:15 AM 60.8 °F - 26.6 °F 27% 30.14 in 10.0 mi South 12.7 mph - N/A   Clear
9:35 AM 62.6 °F - 26.6 °F 26% 30.14 in 10.0 mi SSE 13.8 mph 24.2 mph N/A   Clear
9:55 AM 64.4 °F - 26.6 °F 24% 30.13 in 10.0 mi SSE 17.3 mph 23.0 mph N/A   Clear
10:15 AM 62.6 °F - 26.6 °F 26% 30.15 in 10.0 mi South 15.0 mph 20.7 mph N/A   Clear
10:35 AM 64.4 °F - 24.8 °F 22% 30.15 in 10.0 mi South 18.4 mph 24.2 mph N/A   Clear
10:55 AM 64.4 °F - 24.8 °F 22% 30.15 in 10.0 mi South 18.4 mph 26.5 mph N/A   Clear
11:15 AM 64.4 °F - 23.0 °F 21% 30.15 in 10.0 mi South 24.2 mph 28.8 mph N/A   Clear
11:35 AM 66.2 °F - 24.8 °F 21% 30.15 in 10.0 mi SSE 13.8 mph 27.6 mph N/A   Clear
11:55 AM 66.2 °F - 19.4 °F 17% 30.14 in 10.0 mi South 19.6 mph 35.7 mph N/A   Clear
12:15 PM 64.4 °F - 17.6 °F 16% 30.15 in 10.0 mi SSW 21.9 mph 27.6 mph N/A   Clear
12:35 PM 68.0 °F - 17.6 °F 15% 30.14 in 10.0 mi South 24.2 mph 31.1 mph N/A   Clear
12:55 PM 64.4 °F - 15.8 °F 15% 30.15 in 10.0 mi South 19.6 mph 28.8 mph N/A   Clear
1:15 PM 66.2 °F - 15.8 °F 14% 30.14 in 10.0 mi SSW 19.6 mph 32.2 mph N/A   Clear
1:35 PM 66.2 °F - 15.8 °F 14% 30.13 in 10.0 mi South 25.3 mph 38.0 mph N/A   Partly Cloudy
2:15 PM 64.4 °F - 19.4 °F 18% 30.14 in 10.0 mi SW 16.1 mph 25.3 mph N/A   Partly Cloudy
2:35 PM 64.4 °F - 19.4 °F 18% 30.14 in 10.0 mi South 16.1 mph 25.3 mph N/A   Clear
2:55 PM 64.4 °F - 21.2 °F 19% 30.14 in 10.0 mi SSW 15.0 mph 34.5 mph N/A   Clear
3:15 PM 64.4 °F - 21.2 °F 19% 30.13 in 10.0 mi SSW 21.9 mph 29.9 mph N/A   Partly Cloudy
3:35 PM 62.6 °F - 21.2 °F 20% 30.13 in 10.0 mi South 15.0 mph 24.2 mph N/A   Partly Cloudy
3:55 PM 62.6 °F - 23.0 °F 22% 30.13 in 10.0 mi South 17.3 mph 24.2 mph N/A   Clear
4:15 PM 62.6 °F - 23.0 °F 22% 30.13 in 10.0 mi South 16.1 mph 24.2 mph N/A   Clear
4:35 PM 62.6 °F - 19.4 °F 19% 30.12 in 10.0 mi South 18.4 mph 33.4 mph N/A   Clear
4:55 PM 62.6 °F - 23.0 °F 22% 30.12 in 10.0 mi South 17.3 mph 28.8 mph N/A   Clear
5:35 PM 62.6 °F - 24.8 °F 24% 30.12 in 10.0 mi South 13.8 mph 25.3 mph N/A   Clear
5:55 PM 60.8 °F - 24.8 °F 25% 30.12 in 10.0 mi SSW 20.7 mph 26.5 mph N/A   Clear
6:15 PM 60.8 °F - 24.8 °F 25% 30.12 in 10.0 mi South 13.8 mph 24.2 mph N/A   Partly Cloudy
6:35 PM 60.8 °F - 26.6 °F 27% 30.11 in 10.0 mi South 13.8 mph 25.3 mph N/A   Clear
6:55 PM 59.0 °F - 26.6 °F 29% 30.11 in 10.0 mi South 15.0 mph 26.5 mph N/A   Clear
7:15 PM 59.0 °F - 26.6 °F 29% 30.12 in 10.0 mi South 12.7 mph 20.7 mph N/A   Clear
7:35 PM 59.0 °F - 26.6 °F 29% 30.12 in 10.0 mi South 12.7 mph 16.1 mph N/A   Clear
7:55 PM 57.2 °F - 26.6 °F 31% 30.12 in 10.0 mi South 12.7 mph 19.6 mph N/A   Clear
8:15 PM 57.2 °F - 26.6 °F 31% 30.12 in 10.0 mi SSW 8.1 mph - N/A   Clear
8:35 PM 57.2 °F - 26.6 °F 31% 30.13 in 10.0 mi SSW 13.8 mph 18.4 mph N/A   Clear
8:55 PM 57.2 °F - 26.6 °F 31% 30.14 in 10.0 mi South 10.4 mph 16.1 mph N/A   Clear
9:15 PM 55.4 °F - 26.6 °F 33% 30.14 in 10.0 mi SSW 8.1 mph - N/A   Clear
9:35 PM 55.4 °F - 24.8 °F 31% 30.15 in 10.0 mi SSW 9.2 mph 17.3 mph N/A   Clear
9:55 PM 55.4 °F - 24.8 °F 31% 30.16 in 10.0 mi South 6.9 mph - N/A   Clear
10:15 PM 55.4 °F - 23.0 °F 29% 30.16 in 10.0 mi South 9.2 mph - N/A   Clear
10:35 PM 53.6 °F - 23.0 °F 30% 30.16 in 10.0 mi South 6.9 mph - N/A   Clear
10:55 PM 51.8 °F - 23.0 °F 33% 30.16 in 10.0 mi South 9.2 mph - N/A   Clear
11:15 PM 50.0 °F - 24.8 °F 37% 30.16 in 10.0 mi South 6.9 mph - N/A   Clear
11:35 PM 50.0 °F - 24.8 °F 37% 30.16 in 10.0 mi South 4.6 mph - N/A   Clear
11:55 PM 50.0 °F - 24.8 °F 37% 30.16 in 10.0 mi South 4.6 mph - N/A   Clear